Regional Weather Roundup
Issued by NWS Northern Indiana

Home | Current Version | Previous Version | Text Only | Print | Product List | Glossary On
Versions: 1 2 3 4 5 6 7 8 9 10 11 12 13 14 15 16 17 18 19 20 21 22 23 24 25 26 27 28 29 30 31 32 33 34 35 36 37 38 39 40 41 42 43 44 45 46 47 48 49 50
000
ASUS43 KIWX 240410
RWRIWX

KIWX WEATHER ROUNDUP
NATIONAL WEATHER SERVICE NORTHERN INDIANA
1100 PM EST THU FEB 23 2017

NOTE: "FAIR" INDICATES FEW OR NO CLOUDS BELOW 12,000 FEET WITH NO
SIGNIFICANT WEATHER AND/OR OBSTRUCTIONS TO VISIBILITY.

* THESE STATIONS ARE NOT UNDER NWS QUALITY CONTROL. THEY ALSO MAY NOT
  REPORT WEATHER SUCH AS PRECIPITATION OR FOG.

INZ001>027-240500-
NORTHERN INDIANA

CITY           SKY/WX    TMP DP  RH WIND       PRES   REMARKS
GARY*          CLOUDY    39  38  96 NE7       29.73F
VALPARAISO     CLOUDY    42  40  92 NE7       29.71F FOG
MICHIGAN CITY* CLOUDY    37  37 100 CALM      29.72F FOG
LAPORTE*       CLOUDY    43  42  97 N5        29.71F FOG
KNOX*          CLOUDY    43  34  70 N3        29.70S
SOUTH BEND     CLOUDY    46  45  96 E6        29.71F FOG
GOSHEN         CLOUDY    50  45  83 E8        29.72S HAZE
MONTICELLO*    MOCLDY    50  46  84 NE5       29.66F
LOGANSPORT*    CLOUDY    52  46  82 E5        29.68F
ROCHESTER*     CLOUDY    52  46  82 NE3       29.70S
WARSAW*        CLOUDY    52  46  82 E6        29.70F
ANGOLA*        MOCLDY    50  48  93 E9        29.73F
FORT WAYNE     CLOUDY    55  51  86 NE5       29.72F
HUNTINGTON*    CLOUDY    57  54  89 SE6       29.71S
PERU/GRISSOM   PTCLDY    55  55 100 SE9       29.66F
MARION*        CLOUDY    57  53  87 SE9       29.70F

$$
INZ028>050-240500-
CENTRAL INDIANA

CITY           SKY/WX    TMP DP  RH WIND       PRES   REMARKS
LAFAYETTE      PTCLDY    53  50  89 E5        29.65F
KOKOMO*        PTCLDY    55  53  93 SE8       29.69F
MUNCIE*        PTCLDY    58  53  84 SE7       29.70F
INDIANAPOLIS   MOCLDY    60  54  80 SE12      29.67F

$$
MIZ043>046-050>051-056>058-064>065-071>073-077>080-240500-
SOUTHWEST LOWER MICHIGAN

CITY           SKY/WX    TMP DP  RH WIND       PRES   REMARKS
BATTLE CREEK   LGT RAIN  46  43  89 NE14      29.76F
BENTON HARBOR  LGT RAIN  44  41  89 NE6       29.72F FOG
COLDWATER*     CLOUDY    48  46  93 NE9       29.75F
HILLSDALE*     LGT RAIN  46  45  93 E10       29.75F
HOLLAND        LGT RAIN  43  37  79 NE12G24   29.76F
GRAND RAPIDS   LGT RAIN  41  36  82 NE14      29.80S
KALAMAZOO      LGT RAIN  47  42  83 E9        29.75F
STURGIS*       CLOUDY    48  46  93 E12       29.72F
THREE RIVERS*  LGT RAIN  47  45  90 E15G21    29.73F

$$
OHZ001>008-015>018-024>025-240500-
NORTHWEST OHIO

CITY           SKY/WX    TMP DP  RH WIND       PRES   REMARKS
WAUSEON*       CLOUDY    48  43  81 E17       29.78S
DEFIANCE       CLOUDY    52  48  86 NE8       29.74F
FINDLAY        CLOUDY    59  52  77 SE10      29.75S
TOLEDO EXPRESS LGT RAIN  45  43  93 E18G25    29.78S
TOLEDO METCALF CLOUDY    45  43  93 NE9       29.82R
LIMA           CLOUDY    58  55  90 SE8       29.76S

$$
AND FOR LAKE MICHIGAN COASTAL AND OPEN LAKE BUOY OBSERVATIONS

STATION/POSITION TEMP    WIND        PRES    VSBY  WAVE
                 AIR SEA DIR/SP/G                  HT/PER
                 (F)     (DEG/KT/KT) (MB)    (MI)  (FT/S)
CALUMET HARBOR    37     360/  7/ 11   N/A
MICHIGAN CITY     36      20/  8/  9   N/A
BURNS HARBOR      37      70/ 10/ 11 1006.8F
SAINT JOSEPH      41      10/  3/  4 1007.5

$$
&&



USA.gov is the U.S. government's official web portal to all federal, state and local government web resources and services.